This demonstration page uses our WeatherBlox Daily Observations layout. Learn more.

Left ArrowRight Arrow

Hourly Observations for August 5, 2017

Temp ( °F °C ) Dew Point ( °F °C ) Humidity (%) Winds ( mph kmh ) Pressure ( in mb ) Visibility ( mi km ) Precip ( " mm )
12:15 am 00:15 Clear 55 13 53 11.6 91 91 W 5 7 30.09 1019 10 16 0.00 0.00
12:35 am 00:35 Clear 55 12.6 53 11.5 93 93 W 3 6 30.09 1019 10 16 0.00 0.00
12:55 am 00:55 Clear 55 12.5 52 11.2 92 92 W 5 7 30.09 1019 10 16 0.00 0.00
1:15 am 01:15 Clear 54 12.2 52 11.1 93 93 Calm 30.09 1019 10 16 0.00 0.00
1:35 am 01:35 Clear 53 11.8 52 11 95 95 W 5 7 30.09 1019 10 16 0.00 0.00
1:55 am 01:55 Clear 53 11.6 51 10.8 95 95 W 6 9 30.09 1019 10 16 0.00 0.00
2:15 am 02:15 Clear 52 11.2 51 10.5 96 96 W 5 7 30.09 1019 10 16 0.00 0.00
2:35 am 02:35 undefined 52 11 51 10.5 97 97 Calm 30.09 1019 N/A 0.00 0.00
2:55 am 02:55 Clear 51 10.8 51 10.5 98 98 W 3 6 30.09 1019 10 16 0.00 0.00
3:15 am 03:15 Clear 51 10.6 51 10.3 98 98 Calm 30.09 1019 10 16 0.00 0.00
3:35 am 03:35 Clear 51 10.8 51 10.3 97 97 WSW 3 6 30.09 1019 10 16 0.00 0.00
3:55 am 03:55 Clear 52 11.1 51 10.6 97 97 WSW 5 7 30.09 1019 10 16 0.00 0.00
4:15 am 04:15 Clear 53 11.5 51 10.7 95 95 WSW 6 9 30.09 1019 10 16 0.00 0.00
4:35 am 04:35 Clear 53 11.5 51 10.6 94 94 WSW 5 7 30.09 1019 10 16 0.00 0.00
4:55 am 04:55 Clear 52 11.3 51 10.6 96 96 WSW 6 9 30.09 1019 10 16 0.00 0.00
5:15 am 05:15 Clear 52 11.2 51 10.5 96 96 WSW 3 6 30.09 1019 10 16 0.00 0.00
5:35 am 05:35 Clear 52 11.1 51 10.5 96 96 WSW 3 6 30.09 1019 10 16 0.00 0.00
5:55 am 05:55 Clear 52 11 51 10.3 95 95 SW 3 6 30.09 1019 10 16 0.00 0.00
6:15 am 06:15 Clear 51 10.8 50 10.2 96 96 WSW 3 6 30.09 1019 10 16 0.00 0.00
6:35 am 06:35 Clear 52 11.1 50 10.2 94 94 WSW 5 7 30.09 1019 10 16 0.00 0.00
6:55 am 06:55 Sunny 52 11.3 50 10.2 93 93 WSW 3 6 30.09 1019 10 16 0.00 0.00
7:15 am 07:15 Sunny 52 11.3 51 10.4 94 94 WSW 3 6 30.09 1019 10 16 0.00 0.00
7:35 am 07:35 Sunny 54 12 52 11 94 94 WSW 3 6 30.09 1019 10 16 0.00 0.00
7:55 am 07:55 Sunny 55 13 53 11.5 91 91 WSW 5 7 30.12 1020 10 16 0.00 0.00
8:15 am 08:15 Sunny 57 13.8 54 12.1 90 90 WSW 6 9 30.09 1019 10 16 0.00 0.00
8:35 am 08:35 Sunny 58 14.6 54 12.3 86 86 W 6 9 30.09 1019 10 16 0.00 0.00
8:55 am 08:55 Sunny 60 15.7 55 13 84 84 W 5 7 30.09 1019 10 16 0.00 0.00
9:15 am 09:15 Sunny 62 16.4 56 13.2 82 82 WSW 7 11 30.09 1019 10 16 0.00 0.00
9:35 am 09:35 Sunny 63 17.1 56 13.5 80 80 WSW 8 13 30.09 1019 10 16 0.00 0.00
9:55 am 09:55 Sunny 64 18 57 13.9 77 77 WSW 9 15 30.09 1019 10 16 0.00 0.00
10:15 am 10:15 Sunny 65 18.4 56 13.5 73 73 W 6 9 30.09 1019 10 16 0.00 0.00
10:35 am 10:35 Sunny 67 19.3 58 14.2 72 72 WSW 6 9 30.09 1019 10 16 0.00 0.00
10:55 am 10:55 Sunny 68 20.1 58 14.3 69 69 WSW 7 11 30.09 1019 10 16 0.00 0.00
11:15 am 11:15 Sunny 69 20.6 57 14 66 66 W 10 17 30.09 1019 10 16 0.00 0.00
11:35 am 11:35 Sunny 70 21.2 58 14.5 66 66 W 12 19 30.09 1019 10 16 0.00 0.00
11:55 am 11:55 Sunny 71 21.5 58 14.6 65 65 W 10 17 30.09 1019 10 16 0.00 0.00
12:15 pm 12:15 Partly Cloudy 71 21.8 58 14.5 63 63 W 12 19 30.09 1019 10 16 0.00 0.00
12:35 pm 12:35 Partly Cloudy 72 22.2 58 14.5 62 62 W 12 19 30.12 1020 10 16 0.00 0.00
12:55 pm 12:55 Partly Cloudy 73 22.6 58 14.3 60 60 W 13 20 30.06 1018 10 16 0.00 0.00
1:15 pm 13:15 Mostly Cloudy 72 22.1 57 13.8 59 59 W 9 15 30.06 1018 10 16 0.00 0.00
1:35 pm 13:35 Mostly Cloudy 73 23 57 14.1 57 57 WSW 10 17 30.06 1018 10 16 0.00 0.00
1:55 pm 13:55 Mostly Cloudy 74 23.1 56 13.4 55 55 W 7 11 30.06 1018 10 16 0.00 0.00
2:15 pm 14:15 Partly Cloudy 73 22.7 56 13.4 56 56 W 8 13 30.06 1018 10 16 0.00 0.00
2:35 pm 14:35 Mostly Cloudy 73 23 56 13.2 54 54 W 8 13 30.06 1018 10 16 0.00 0.00
2:55 pm 14:55 Partly Cloudy 73 22.5 57 13.7 58 58 W 6 9 30.06 1018 10 16 0.00 0.00
3:15 pm 15:15 Partly Cloudy 73 23 57 13.7 56 56 W 9 15 30.06 1018 10 16 0.00 0.00
3:35 pm 15:35 Partly Cloudy 73 22.9 57 13.7 56 56 W 7 11 30.06 1018 10 16 0.00 0.00
3:55 pm 15:55 Partly Cloudy 73 23 56 13.6 56 56 W 6 9 30.06 1018 10 16 0.00 0.00
4:15 pm 16:15 Partly Cloudy 73 22.5 57 13.9 58 58 WSW 8 13 30.06 1018 10 16 0.00 0.00
4:35 pm 16:35 Partly Cloudy 74 23.3 57 14 56 56 W 9 15 30.03 1017 10 16 0.00 0.00
4:55 pm 16:55 Partly Cloudy 73 22.8 58 14.2 58 58 WSW 7 11 30.06 1018 10 16 0.00 0.00
5:15 pm 17:15 Partly Cloudy 73 22.8 57 14 58 58 W 8 13 30.06 1018 10 16 0.00 0.00
5:35 pm 17:35 Sunny 73 22.5 58 14.6 61 61 WSW 5 7 30.03 1017 10 16 0.00 0.00
5:55 pm 17:55 Sunny 72 22.2 58 14.2 61 61 WSW 5 7 30.03 1017 10 16 0.00 0.00
6:15 pm 18:15 Sunny 72 22 58 14.2 61 61 WSW 7 11 30.03 1017 10 16 0.00 0.00
6:35 pm 18:35 Sunny 71 21.7 58 14.5 64 64 WSW 6 9 30.06 1018 10 16 0.00 0.00
6:55 pm 18:55 Partly Cloudy 71 21.4 59 14.9 67 67 SW 6 9 30.06 1018 10 16 0.00 0.00
7:15 pm 19:15 Partly Cloudy 70 21 59 14.8 68 68 SW 6 9 30.06 1018 10 16 0.00 0.00
7:35 pm 19:35 Mostly Cloudy 69 20.5 59 14.8 70 70 WSW 6 9 30.06 1018 10 16 0.00 0.00
7:55 pm 19:55 Partly Cloudy 69 20.4 59 15.1 72 72 SW 3 6 30.06 1018 10 16 0.00 0.00
8:15 pm 20:15 undefined 69 20.6 59 15.2 71 71 SW 5 7 30.06 1018 N/A 0.00 0.00
8:35 pm 20:35 Sunny 67 19.5 59 14.8 74 74 WSW 5 7 30.06 1018 10 16 0.00 0.00
8:55 pm 20:55 Clear 65 18.1 59 15.1 83 83 Calm 30.06 1018 10 16 0.00 0.00
9:15 pm 21:15 Clear 63 17.3 59 15.1 87 87 SSW 3 6 30.06 1018 10 16 0.00 0.00
9:35 pm 21:35 Clear 62 16.6 59 15 90 90 SSW 3 6 30.06 1018 10 16 0.00 0.00
9:55 pm 21:55 Clear 62 16.6 59 15 90 90 Calm 30.06 1018 10 16 0.00 0.00
10:15 pm 22:15 Clear 61 16 59 14.8 93 93 Calm 30.06 1018 10 16 0.00 0.00
10:35 pm 22:35 Clear 60 15.6 58 14.6 94 94 Calm 30.06 1018 10 16 0.00 0.00
10:55 pm 22:55 Clear 59 15.2 58 14.4 95 95 Calm 30.06 1018 10 16 0.00 0.00
11:15 pm 23:15 Clear 59 14.9 58 14.4 97 97 Calm 30.06 1018 10 16 0.00 0.00
11:35 pm 23:35 Clear 59 14.9 58 14.4 97 97 E 3 6 30.06 1018 10 16 0.00 0.00
11:55 pm 23:55 Clear 58 14.6 57 14.1 97 97 Calm 30.06 1018 10 16 0.00 0.00

Powered by AerisWeather